www.pogodaiklimat.ru

Погода и климат >> Архив погоды >> Мексика >> Piedras Negras


ПОГОДА в Piedras Negras

  • Прогноз погоды в Piedras Negras
  • Монитор погоды в Piedras Negras
  • Климат города

АРХИВ ПОГОДЫ в Piedras Negras

Время (UTC), дата Ветер
(напр.,м/с)
 
Видим.   Явления Облачность Т
(С)
Тd
(С)
f
(%)
Тe
(С)
Тes
(С)
Комфортность P
(гПа)
Po
(гПа)
Тmin
(С)
Tmax
(С)
R
(мм)
R24
(мм)
S
(см)
15 18.04 ЮВ 1 22 км 10/10 330 м
[Sc diur, vesp]
+21.0 +17.4 80 +26 +26 душно 1016.5 987.5
18 18.04 В 1 23 км 9/9 420 м
[Sc diur, vesp]
+24.6 +20.2 77 +30 +33 очень
душно
1016.5 987.6 +18.6 +25.2
21 18.04 ЮВ 2 24 км 5/5 480 м
[Sc diur, vesp]
+32.4 +19.2 46 +38 +45 очень
душно
1013.5 985.0
00 19.04 ЮВ 2 23 км ясно +31.4 +21.8 57 +40 +41 очень
душно
1011.7 983.6 +18.6 +34.2
03 19.04 В 1 20 км ясно +25.8 +17.0 58 +30 +30 душно 1014.2 986.1
06 19.04 В 1 20 км ясно +22.8 +17.2 71 +28 +28 душно 1015.0 986.0 +18.6 +34.2
09 19.04 ЮВ 1 20 км ясно +20.4 +19.5 95 +26 +26 душно 1015.7 987.4
12 19.04 В 2 20 км ясно +19.2 +17.7 91 +22 +22 комфорт 1017.5 988.8 +18.5 +34.2
15 19.04 В 1 22 км 8/8 420 м
[Sc diur, vesp]
+22.0 +18.5 81 +27 +29 душно 1016.2 988.1
18 19.04 В 1 23 км 5/5 500 м
[Sc diur, vesp]
+28.8 +21.3 64 +36 +48 очень
душно
1016.1 987.3 +18.5 +29.4
21 19.04 ЮВ 1 24 км 3/3 500 м
[Sc diur, vesp]
+34.2 +22.3 50 +43 +55 опасность
перегрева
1012.2 983.9
00 20.04 ЮВ 2 24 км ясно +34.0 +23.6 55 +45 +47 опасность
перегрева
1010.9 982.9 +18.5 +36.0
03 20.04 ЮВ 1 20 км ясно +27.6 +17.8 55 +32 +32 очень
душно
1013.5 985.7
06 20.04 ЮВ 1 20 км ясно +24.4 +18.0 68 +29 +29 душно 1014.4 986.5 +18.5 +36.0
12 20.04 В 1 20 км ясно +20.0 +17.9 88 +24 +24 комфорт 1013.8 985.3 +19.0 +36.0
15 20.04 Ю 1 22 км 8/8 420 м
[Sc diur, vesp]
+22.6 +19.4 82 +29 +30 очень
душно
1015.6 986.9
18 20.04 ЮВ 1 24 км ясно +31.2 +21.3 56 +39 +63 опасность
солнечного
удара
1014.4 985.8 +19.0 +31.8
21 20.04 ЮВ 2 24 км 3/3 540 м
[Cu med, cong]
+35.6 +23.3 49 +46 +56 опасность
перегрева
1010.6 982.4
00 21.04 ЮВ 2 24 км ясно +34.4 +23.8 54 +46 +47 опасность
перегрева
1009.1 981.3 +19.0 +37.0
03 21.04 ЮВ 1 20 км ясно +27.8 +16.6 51 +31 +31 душно 1011.8 984.1
06 21.04 ЮВ 1 20 км ясно +25.0 +19.6 72 +30 +30 душно 1012.1 984.3 +19.0 +37.0
12 21.04 Ю 1 20 км 8/8 400 м
[Sc diur, vesp]
+21.8 +19.2 85 +27 +27 душно 1010.5 982.2 +21.0 +37.0
15 21.04 Ю 1 22 км 10/10 400 м
[Sc diur, vesp]
+24.0 +20.0 78 +29 +29 душно 1011.9 983.4
18 21.04 ЮВ 1 24 км 8/8 500 м
[Sc diur, vesp]
+30.2 +23.2 66 +40 +45 очень
душно
1010.9 982.5 +21.0 +32.0
21 21.04 Ю 1 24 км ясно +35.4 +20.2 41 +41 +59 опасность
перегрева
1006.9 978.9
00 22.04 ЮВ 2 24 км ясно +34.8 +16.6 34 +38 +39 очень
душно
1004.9 977.2 +21.0 +37.4
03 22.04 ЮВ 1 20 км ясно +29.2 +20.9 61 +36 +36 очень
душно
1008.0 980.4
06 22.04 ЮВ 2 20 км ясно +26.0 +20.4 71 +32 +32 очень
душно
1008.0 980.4 +21.0 +37.4
12 22.04 В 1 20 км 10/10 420 м
[Sc diur, vesp]
+23.0 +20.8 87 +30 +30 очень
душно
1009.4 980.2 +21.0 +37.4
15 22.04 С 1 20 км слабая морось 10/10 300 м
[Frnb]
+22.0 +21.2 95 +28 +28 душно 1011.9 983.4 0.0
18 22.04 С 4 20 км {морось} 10/10 200 м
[St]
+16.4 +16.1 98 +16 +16 1016.2 987.4 0.5
21 22.04 С 2 22 км 10/10 300 м
[Frnb]
+20.0 +10.8 55 +22 +22 комфорт 1017.3 988.3
00 23.04 С 1 22 км 10/10 200 м
[Frnb]
+20.4 +10.9 54 +23 +23 комфорт 1017.1 988.1 +15.0 +26.0
03 23.04 В 3 20 км 10/10 270 м
[Frnb]
+19.2 +13.8 71 +21 +21 комфорт 1022.0 992.8
06 23.04 С 2 20 км 10/10 270 м
[Frnb]
+18.4 +14.0 76 +19 +19 1022.1 992.9 +15.0 +26.0
12 23.04 С 1 20 км 8/8 420 м
[Sc diur, vesp]
+15.8 +6.3 53 +17 +17 1023.2 993.9 +15.0 +26.0
15 23.04 С 1 22 км 3/3 480 м
[Sc diur, vesp]
+18.6 +7.7 49 +20 +27 1025.0 995.5
18 23.04 СЗ 1 24 км ясно +23.8 +5.2 30 +24 +47 комфорт 1023.1 993.8 +15.0 +24.4
21 23.04 ЮЗ 2 24 км ясно +26.8 +13.5 44 +29 +44 жарко 1019.2 990.2
00 24.04 Ю 2 24 км ясно +26.4 +17.0 56 +30 +32 душно 1017.4 988.7 +15.0 +29.2
03 24.04 ЮВ 1 20 км ясно +21.2 +15.4 69 +24 +24 комфорт 1015.5 987.0
12 24.04 В 1 20 км ясно +14.6 +7.8 64 +15 +15 1014.1 985.1 +13.8 +29.2
15 24.04 В 1 24 км ясно +21.0 +7.5 42 +23 +33 комфорт 1013.5 984.4
18 24.04 Ю 2 24 км 6/0
[Cs]
+28.6 +14.8 43 +31 +49 жарко 1011.7 982.9 +13.8 +30.1
21 24.04 ЮВ 4 22 км мгла {туман} 5/0
[Ci]
+32.8 +18.3 42 +37 +46 очень
душно
1009.2 980.7
00 25.04 ЮВ 2 22 км 5/0
[Ci]
+32.6 +21.1 51 +40 +42 очень
душно
1005.9 978.0 +13.8 +33.2
03 25.04 ЮВ 1 20 км ясно +26.4 +19.3 65 +32 +32 очень
душно
1003.9 976.2
06 25.04 ЮВ 1 20 км ясно +22.4 +18.3 78 +28 +28 душно 1004.0 976.2 +13.8 +33.2
09 25.04 Ю 1 20 км ясно +20.0 +16.1 78 +24 +24 комфорт 1002.1 974.1
12 25.04 В 1 20 км ясно +17.8 +16.3 91 +19 +19 1003.9 975.5 +17.2 +33.2

 

Местоположение метеостанции Piedras Negras (Мексика): широта 28.70 долгота -100.50 высота над уровнем моря 250 м.

В архиве по умолчанию представлена погода в Piedras Negras за последнюю неделю. Архивные данные за месяц целиком и за предыдущие месяцы, начиная с января 2011 года, Вы можете получить, выбрав интересующий диапазон дат из раскрывающегося списка и нажав кнопку "Ввод!".

Внимание! Время в таблицах - всемирное. Для получения местного времени необходимо прибавить поправку, которая в Piedras Negras равна -7 ч.

Смотрите также архив погоды в соседних городах и на ближайших метеорологических станциях:

Погода в Monclova (Мексика) (221 км)
Погода в Monterrey (Мексика) (331 км)
Погода в Saltillo (Мексика) (374 км)
Погода в Torreon (Мексика) (455 км)
Погода в Chihuahua University (Мексика) (537 км)
Погода в Hidalgo del Parral (Мексика) (539 км)
Погода в Chihuahua (Мексика) (544 км)
Погода в Ciudad Victoria (Мексика) (569 км)
Погода в Soto La Marina (Мексика) (594 км)
Погода в Tepehuanes (Мексика) (638 км)

Пояснения к столбцам:

Ветер - указаны скорость ветра в м/с - средняя за 10 мин, порывы в срок и между сроками (в фигурных скобках) и направление, откуда дует ветер: С - северный, СВ - северо-восточный, В - восточный, ЮВ - юго-восточный, Ю - южный, ЮЗ - юго-западный, З - западный, СЗ - северо-западный.
Видимость - горизонтальная дальность видимости в метрах или километрах. При видимости от 1 до 10 км при отсутствии осадков обычно наблюдается дымка, при ухудшении видимости до 1 км и менее - туман. В сухую погоду видимость может ухудшаться дымом, пылью или мглою.
Явления - указаны атмосферные явления, наблюдавшиеся в срок или в последний час перед сроком; фигурными скобками обозначены явления, наблюдавшиеся между сроками (за 1-3 часа до срока); квадратными скобками обозначены град или гололедные отложения с указанием их диаметра в мм.
Облачность - указаны через наклонную черту общая и нижняя облачность в баллах и высота нижней границы облаков в метрах; квадратными скобками обозначены формы облаков: Ci - перистые, Cs - перисто-слоистые, Cc - перисто-кучевые, Ac - высококучевые, As - высокослоистые, Sc - слоисто-кучевые, Ns - слоисто-дождевые, Cu - кучевые, Cb - кучево-дождевые. Подробнее классификацию облаков см. в Атласе облаков (PDF).
T - Температура воздуха - температура, измеренная на высоте 2 м над землей.
Td - Температура точки росы - температура, при понижении до которой содержащийся в воздухе водяной пар достигнет насыщения.
f - Относительная влажность воздуха - влажноcть воздуха, измеренная на высоте 2 м над землей.
Te - Эффективная температура - температура, которую ощущает одетый по сезону человек в тени. Характеристика душности погоды. При расчете учитывается влияние влажности воздуха и скорости ветра на теплоощущения человека.
Tes - Эффективная температура на солнце - температура, которую ощущает человек, с поправкой на солнечный нагрев. Характеристика знойности погоды. Зависит от высоты солнца над горизонтом, облачности и скорости ветра. Ночью, в пасмурную погоду, а также при ветре 12 м/с и более поправка равна нулю.
P - Атмосферное давление - приведенное к уровню моря атмосферное давление.
Po - Атмосферное давление - измеренное на уровне метеостанции атмосферное давление.
Tmin - Минимальная температура - минимум температуры воздуха на высоте 2 м над землей.
Tmax - Максимальная температура - максимум температуры воздуха на высоте 2 м над землей.
R - Количество осадков - Количество выпавших осадков за период времени, мм. При наведении курсора мыши на число - период времени, за который выпало указанное количество осадков.
R24 - Количество осадков - Количество выпавших осадков за 24 часа, мм.
S - Снежный покров - Высота снежного покрова, см. При наведении курсора мыши на число - состояние снежного покрова и степень покрытия местности в баллах.